Location: Newark
(36.1358°N, 115.1208°W)
Time: 09:15:13
(UTC+00:00)

Transit 2A Rocket - Visible Passes

Search period start: 17 February 2020 00:00
Search period end: 27 February 2020 00:00
Orbit: 592 x 911 km, 66.7° (Epoch: 16 February)

Date Brightness Start Highest point End Pass type
(mag) Time Alt. Az. Time Alt. Az. Time Alt. Az.
22 Feb 7.9 13:21:01 10° NE 13:21:52 10° NE 13:22:44 10° NE visible
24 Feb 7.3 13:35:37 10° N 13:39:54 24° NE 13:44:26 10° ESE visible
25 Feb 7.7 12:54:05 10° NNE 12:57:03 15° NE 13:00:08 10° E visible
